User: anonymous   Login
Location: Arcueil
(48.7999°N, 2.3326°E)
Time: 05:19:51
(UTC+00:00)
Language:

Cosmos 1544 Rocket - Orbit

View from above orbital plane
View from above orbital plane
View from above satellite
View from above satellite

Ground track
Ground track

The orbit data is extracted from the following two-line orbital elements,

1 14820U 84027B   23152.89241830  .00000563  00000-0  64167-4 0  9996
2 14820  82.5412 112.5371 0020230  80.9881 279.3623 14.84205936 97460
Epoch (UTC): 01 June 2023 21:25:04
Eccentricity: 0.0020230
inclination: 82.5412°
perigee height: 602 km
apogee height: 630 km
right ascension of ascending node: 112.5371°
argument of perigee: 80.9881°
revolutions per day: 14.84205936
mean anomaly at epoch: 279.3623°
orbit number at epoch: 9746

The dashed part of the orbit path shows where the satellite is in the earth's shadow,  

DLR